Location: ?????????
(54.7630°N, 39.4991°E)
Time: 17:35:53
(UTC+00:00)

Cosmos 1513 Rocket - Pass Details

Date: 14 April 2026
Orbit: 938 x 1008 km, 82.9° (Epoch: 16 May)

Event Time Altitude Azimuth Distance (km) Brightness Sun altitude
Exits shadow 22:40:27 49° 201° (SSW) 1,279 4.6 -23.5°
Maximum altitude 22:42:21 82° 281° (W) 1,020 4.5 -23.4°
Drops below altitude 10° 22:48:46 10° 10° (N) 2,772 7.9 -23.0°
Sets 22:51:17 0° 12° (NNE) 3,715 8.9 -22.9°
